TimeCST,TemperatureF,Dew PointF,Humidity,Sea Level PressureIn,VisibilityMPH,Wind Direction,Wind SpeedMPH,Gust SpeedMPH,PrecipitationIn,Events,Conditions,WindDirDegrees,DateUTC
12:52 AM,37.0,27.0,67,30.06,10.0,ENE,5.8,-,N/A,,Clear,70,2013-02-25 06:52:00
1:52 AM,36.0,27.0,70,30.07,10.0,ENE,3.5,-,N/A,,Clear,60,2013-02-25 07:52:00
2:52 AM,36.0,27.0,70,30.05,10.0,ENE,6.9,-,N/A,,Clear,70,2013-02-25 08:52:00
3:52 AM,35.1,27.0,72,30.06,10.0,NE,3.5,-,N/A,,Clear,40,2013-02-25 09:52:00
4:52 AM,35.1,26.1,70,30.04,10.0,ENE,6.9,-,N/A,,Clear,70,2013-02-25 10:52:00
5:52 AM,35.1,26.1,70,30.02,10.0,East,5.8,-,N/A,,Clear,80,2013-02-25 11:52:00
6:52 AM,36.0,26.1,67,30.01,9.0,East,9.2,-,N/A,,Scattered Clouds,80,2013-02-25 12:52:00
7:52 AM,37.0,26.1,65,30.01,10.0,East,8.1,-,N/A,,Clear,80,2013-02-25 13:52:00
8:52 AM,45.0,28.0,52,30.03,10.0,East,6.9,-,N/A,,Scattered Clouds,100,2013-02-25 14:52:00
9:52 AM,48.9,30.0,48,29.99,10.0,ENE,10.4,-,N/A,,Clear,70,2013-02-25 15:52:00
10:52 AM,52.0,30.9,45,29.99,10.0,East,15.0,21.9,N/A,,Scattered Clouds,90,2013-02-25 16:52:00
11:52 AM,54.0,30.0,40,29.96,10.0,East,12.7,23.0,N/A,,Mostly Cloudy,90,2013-02-25 17:52:00
12:52 PM,53.1,30.9,43,29.90,10.0,ENE,13.8,-,N/A,,Overcast,60,2013-02-25 18:52:00
1:52 PM,53.1,30.0,41,29.85,10.0,ENE,18.4,23.0,N/A,,Overcast,60,2013-02-25 19:52:00
2:52 PM,54.0,30.9,41,29.82,10.0,ENE,17.3,-,N/A,,Overcast,70,2013-02-25 20:52:00
3:52 PM,53.1,30.0,41,29.79,10.0,East,18.4,26.5,N/A,,Overcast,80,2013-02-25 21:52:00
4:52 PM,51.1,30.0,44,29.75,10.0,ENE,16.1,26.5,N/A,,Overcast,70,2013-02-25 22:52:00
5:52 PM,50.0,30.0,46,29.73,10.0,ENE,12.7,24.2,N/A,,Overcast,60,2013-02-25 23:52:00
6:52 PM,48.9,30.0,48,29.74,10.0,ENE,15.0,23.0,0.00,Rain,Light Rain,70,2013-02-26 00:52:00
7:52 PM,48.0,30.0,50,29.68,10.0,ENE,16.1,-,0.00,,Overcast,70,2013-02-26 01:52:00
8:52 PM,48.0,28.0,46,29.64,10.0,East,12.7,28.8,N/A,,Overcast,80,2013-02-26 02:52:00
9:52 PM,48.0,28.0,46,29.63,10.0,ENE,15.0,21.9,N/A,,Overcast,70,2013-02-26 03:52:00
10:52 PM,46.9,28.0,48,29.61,10.0,ENE,9.2,-,N/A,,Overcast,60,2013-02-26 04:52:00
11:52 PM,44.1,33.1,65,29.55,6.0,NE,11.5,-,0.08,Rain,Light Rain,50,2013-02-26 05:52:00